Join Today

Capital City Aviation is creating Tomorrows Pilots Today!

Come and experience the Freeedom of Flight!

Join Today
Checkout the National Weather Services “NEW” Aviation Weather website. Let us know what you think!Learn More
One of the webs greatest supplemental resources for students, pilots and aviation enthusiasts.Learn More
SkyVector has grown in popularity to become the number one internet destination for aeronautical charts and publications!Learn More
Welcome to CSC Duats! Where we have been serving pilots since 1989. File your IFR / VFR flight plan today!Learn More
To provide aviation students and members with the highest quality instruction and rental aircraft in the central Ohio region. 

We employ the best of the best that Central Ohio has to offer. With total team experience exceeding 50 years we have what it takes to not only train at a level that exceeds most clubs but that are comparable to many of the top tier schools within the country.
To share the joy of that  which we love most…FLYING!!
To provide our students and members with a safe positive flying experience all at an excellent value .

    Current METAR for KOSU
    KOSU 261453Z 17013KT 10SM CLR 11/01 A3055 RMK AO2 SLP349 T01110011 51008
    Current METAR for KCMH
    KCMH 261551Z 18013KT 10SM FEW065 BKN250 13/02 A3057 RMK AO2 SLP354 T01330017
    Current METAR for KTZR
    KTZR 261550Z 17011G17KT 10SM SKC 13/03 A3056
    Current METAR for KLCK
    KLCK 261535Z AUTO 19014G18KT 10SM CLR 12/02 A3057 RMK AO2 T01230015
Note: This calculator is provided as a convenience only. Should you be planning a trip by air you should always use official sectional charts and other prudent and official sources of information on which to base your flight planning and go/no-go decisions.

Central Ohio’s Ultimate Aviation Club House

While we pride ourselves in the level of professionalism and sincerity that we approach our training with, we also place a major emphasis on making training fun. Aviation is serious business but it should always be enjoyable. We foster a relaxed atmosphere that promotes learning instead of causing intimidation or anxiety. The aviation community is very tight-knit and at Capital City Aviation we like to think of our customers and employees as a small family within that community. Our club house offers a lounge, student work areas, briefing rooms and work stations. We also provide FREE Wifi in order for our members to get up-to-date information for all their flying needs.

Capital City Aviation is located above Hanger 2 at the Ohio State University Airport

2160 West Case Road,
Columbus, OH 43235
Phone: (614) 459-2541

CCA Directions